Location: Marcé
(47.5801°N, 0.3280°W)
Time: 16:28:20
(UTC+01:00)

SR - Pass Details

Date: 01 December 2021
Orbit: 582 x 872 km, 66.7° (Epoch: 22 January)

Event Time Altitude Azimuth Distance (km) Brightness Sun altitude
Rises 03:06:42 0° 260° (W) 2,927 - -52.5°
Reaches altitude 10° 03:09:41 10° 280° (W) 1,979 - -52.0°
Maximum altitude 03:12:41 18° 323° (NW) 1,511 - -51.6°
Drops below altitude 10° 03:15:37 10° 7° (N) 1,926 - -51.2°
Sets 03:18:29 0° 27° (NNE) 2,817 - -50.7°
